Showing default

HULIANWANG DIGUI-02, 62324

Orbit data source: Space-Track

HULIANWANG DIGUI-02, 62324 is a payload satellite owned by Zhongguo Xingwang (CN) in LEO that was launched on Mon, 16 Dec 2024 UTC via a CHANG ZHENG 5B/YZ-2 launch vehicle from the Wenchang Satellite Launch Center (WSC). Payload-class satellites include a variety of spacecraft equipped with specific instruments for various scientific and technological missions. These include communications satellites like Starlink; space stations such as the ISS; scientific satellites like the Hubble; Earth observation satellites from companies like Planet Labs, Umbra, and HawkEye 360; GPS; miniature CubeSats for education and research; and military/defense satellites.

Loading next visibility...
Identifier
62324, 2024-240B
Orbit
LEO
Country
Flag of CNCN / PRC
Related business
Manufacturer
CAST?
Mission
Operational Civil Communications
Bus & Motor
GUOWANG C, Unknown motor
Mass
~800 kg wet, ~800 kg dry
Launch date (UTC)
2024-12-16 (1 year ago)
Launch vehicle
CHANG ZHENG 5B/YZ-2
Launch site
Wenchang Satellite Launch Center (WSC)
Object type
Payload
Rocket body
Debris
Shape & HBR
Box + 2 Pan, 5.0 m
Radar Cross Section
5.935 m², Large (>1 m²)

Expand to show TLE details & history
Last TLE update: 14 hours ago

TLE from 14 hours ago
0 HULIANWANG DIGUI-02
1 62324U 24240B   25341.26486134  .00000104  00000-0  20890-3 0  9995
2 62324  86.5021  48.0860 0001891  94.3625 265.7725 13.24414242 47243
Epoch: 2025-12-07T06:21Z
TLE epoch observation values (Epoch: 2025-12-07T06:21:24.019Z)
Latitude
-0.00005°
Longitude
-123.54482°
Altitude
1,170.906 km
Speed
7.268 km/s
True Right ascension
03h 12m 20s
True Declination
0° 00' 00"
Sunlit
Object was in full shadow at epoch
Visualization orbit readout
Latitude
Unknown
Longitude
Unknown
Altitude
Unknown
Speed
Unknown
Apparent Right ascension
Unknown
Apparent Declination
Unknown
Sunlit
N/A
Visualization observer readout
Local Sidereal Time
18:33:56
Azimuth
Unknown
Elevation
Unknown
Doppler factor
Unknown
Orbital elements
Apogee altitude
1,166.452 km
Perigee altitude
1,163.6 km
Semi-major axis
7,543.163 km
Eccentricity
0.00019
Inclination
86.5021°
RAAN
48.086°
Arg. of periapsis
94.3625°
True anomaly
265.75089°
Mean anomaly
265.7725°
Eccentric anomaly
265.76169°
Mean motion
3.31294 °/min
Orbital period
108.66 mins
BSTAR
0.0002089
Loading maneuver chart data...
Computing Atmospheric mass density...
Loading historical data...
Loading historical data...
Loading historical data...
Loading historical data...
Loading historical data...
Loading historical data...
Loading historical data...

Documentation

Showing up to 5 results
|